Wind_Speed
17 15 14 12 7 8 11 8 5 9 12 10 13 9 9 6 9 8 4 9 10 8 8 9 7 4 1 6 9 11 13 10 9 8 8 8 8 8 7 6 4 3 2 2 1 1 2 2 2
18 16 14 12 10 13 15 5 9 9 18 16 17 15 10 10 11 9 3 6 9 8 9 9 7 4 1 7 9 8 7 6 8 8 8 8 7 6 6 6 5 4 3 2 2 2 2 1 2
19 18 16 12 16 21 15 6 16 14 14 14 12 16 18 12 16 14 10 5 9 10 11 10 8 5 1 7 7 7 6 7 8 8 9 9 9 7 5 5 5 4 3 4 3 4 4 3 3
21 20 19 19 20 20 20 9 3 11 13 12 11 3 12 11 12 15 15 12 12 13 12 12 9 5 6 9 6 5 7 8 9 9 9 9 9 8 7 5 4 4 4 3 3 3 4 4 4
24 23 24 22 29 21 14 11 4 16 10 8 13 10 8 17 16 14 19 15 12 14 13 12 10 7 8 9 7 7 10 8 8 8 9 9 10 9 7 6 5 3 3 3 3 2 2 2 3
24 24 18 30 29 20 20 17 11 16 16 12 10 15 11 12 12 16 20 17 15 15 14 13 9 9 9 10 10 9 9 9 8 8 8 9 8 8 8 7 6 4 3 3 3 2 2 3 4
27 27 31 28 24 19 15 8 13 23 18 18 10 13 15 17 12 14 19 17 16 15 16 16 12 12 12 13 13 11 10 9 8 7 8 9 7 6 6 6 6 6 5 4 3 2 1 2 3
29 28 31 31 31 27 15 16 15 26 24 19 16 15 19 12 15 15 19 20 18 17 18 19 16 16 16 16 16 14 12 11 9 8 8 8 7 6 5 6 6 6 6 5 5 5 5 4 5
26 31 33 34 31 30 21 19 11 22 21 20 25 18 20 18 15 17 20 24 21 19 20 20 19 18 18 18 18 16 15 14 12 11 10 8 7 6 6 6 7 7 7 7 6 7 7 7 7
34 38 39 32 30 24 19 24 19 19 23 22 22 23 21 22 20 19 19 21 23 23 24 22 21 22 21 20 20 19 18 17 16 15 12 10 7 7 6 6 7 8 8 8 8 9 9 9 9
35 39 37 29 18 21 29 25 22 20 23 26 29 25 24 24 30 25 22 23 23 23 24 25 26 25 23 22 22 21 21 20 18 17 16 14 11 9 8 7 7 8 9 9 10 10 11 11 11
31 34 29 23 24 27 29 30 29 28 29 25 29 31 28 25 28 29 31 27 26 25 24 27 26 27 26 24 23 22 22 21 20 20 19 18 15 13 12 10 9 10 10 10 12 12 13 13 14
27 26 21 20 28 31 32 34 35 36 33 35 34 34 33 25 30 34 32 33 32 33 32 30 28 28 28 27 26 25 24 24 22 21 21 19 18 17 14 13 13 12 12 13 13 13 13 14 13
16 17 21 27 28 34 37 39 38 41 35 35 33 35 37 30 32 32 36 33 32 31 34 35 33 30 30 28 27 26 26 25 24 23 22 20 17 17 14 13 14 16 16 16 15 16 16 16 16
20 18 21 30 30 32 40 44 45 34 31 37 43 41 43 41 40 42 37 37 36 35 33 37 35 30 31 28 27 26 26 26 23 21 21 18 17 16 15 14 16 17 17 18 18 18 18 18 17
20 20 24 19 19 22 27 44 29 22 25 29 33 36 37 46 50 48 44 42 40 37 36 37 39 38 34 33 29 27 28 25 25 22 22 21 20 18 18 17 18 19 18 19 20 20 20 19 19
19 20 18 12 11 15 22 29 20 19 27 32 29 29 31 36 40 47 48 45 44 44 42 39 41 43 38 34 33 31 31 29 29 27 26 24 23 22 21 21 22 22 21 21 21 21 22 21 20
19 15 13 15 10 16 21 29 27 20 23 28 30 30 29 29 33 36 40 41 41 44 46 45 41 43 44 41 36 35 34 33 30 31 28 26 26 23 25 26 24 22 23 23 22 21 21 22 21
17 9 13 16 7 16 21 28 30 29 30 33 32 34 32 29 25 27 30 34 39 43 46 45 42 42 42 46 45 40 38 37 34 34 31 26 25 21 27 27 25 23 23 22 23 23 22 22 21
13 18 19 19 17 19 29 39 37 34 32 30 25 29 29 27 28 30 32 34 35 37 41 48 46 43 45 45 48 46 41 40 36 35 33 28 25 23 25 25 26 24 24 23 22 23 22 22 22
20 21 20 19 22 24 31 42 29 17 17 14 12 14 17 20 24 27 30 34 36 39 40 43 49 46 44 47 47 51 48 42 40 39 36 30 27 24 25 26 27 25 25 23 23 23 23 24 23
16 16 13 13 13 9 6 12 29 20 24 23 20 19 21 22 22 24 27 30 36 43 42 42 50 54 49 44 47 52 54 49 46 43 39 34 29 27 26 27 28 28 26 25 24 24 24 26 24
10 9 11 14 15 19 23 12 19 17 16 11 13 14 13 10 11 16 17 21 25 31 40 45 44 53 58 55 50 48 54 51 47 44 41 39 34 32 29 29 30 30 27 27 27 25 25 25 27
10 13 12 9 9 5 16 18 5 2 1 5 7 6 8 13 18 23 24 26 28 28 26 35 43 45 50 63 61 56 53 57 52 48 44 42 37 36 33 31 32 33 30 29 27 30 30 27 26
11 6 2 1 2 7 4 12 24 8 14 15 19 23 19 21 24 27 28 28 29 31 31 31 34 46 44 43 58 61 56 60 56 47 44 42 37 37 35 33 31 33 33 32 31 28 28 27 27
17 8 4 4 3 4 6 12 8 16 20 15 13 13 15 20 22 26 30 35 38 40 35 32 30 34 46 48 47 50 56 54 51 45 44 43 39 38 37 33 32 31 33 31 29 28 30 29 29
10 13 5 3 7 3 9 13 21 11 13 16 21 22 21 22 26 23 32 36 42 44 42 37 36 32 33 47 49 46 47 48 46 41 41 39 39 40 38 35 33 32 33 31 32 30 31 29 29
5 6 6 5 2 5 8 11 20 15 18 16 13 16 17 19 24 30 36 41 36 41 40 30 24 31 31 39 46 48 47 44 41 37 33 36 37 37 36 34 33 28 32 30 28 31 31 30 30
20 13 6 5 6 4 4 7 7 10 18 25 30 33 35 33 29 26 33 38 39 39 30 27 23 23 27 34 40 44 44 39 34 33 32 34 33 34 34 33 29 30 31 31 28 30 29 30 31
13 20 17 7 4 11 8 13 11 15 14 29 43 51 51 37 24 32 35 36 37 38 33 26 21 24 27 30 34 41 42 38 31 31 31 31 32 32 32 29 36 36 32 35 30 27 29 30 33
Wind_Direction
236 237 243 246 231 233 248 236 212 284 253 231 226 244 234 214 231 261 264 185 184 180 191 197 194 199 339 13 5 358 354 348 357 5 10 12 8 4 4 5 6 9 20 16 59 193 212 223 234
235 233 233 227 220 219 245 196 265 245 255 248 224 234 221 236 234 258 257 193 209 210 207 205 201 198 337 355 353 346 339 350 355 5 9 11 14 10 6 4 2 358 352 358 319 312 301 280 248
232 230 226 218 222 219 231 189 353 210 234 249 253 238 229 243 238 256 252 212 212 209 205 209 210 213 262 339 327 338 338 352 359 2 5 10 9 10 8 8 5 358 344 325 315 307 290 270 266
227 226 222 218 220 232 232 187 123 213 221 249 232 212 230 248 254 256 260 236 210 207 212 213 211 218 300 328 302 318 336 339 346 353 358 3 9 8 9 5 358 351 341 325 298 276 273 285 292
222 221 222 228 234 235 218 216 294 255 232 261 201 186 215 240 258 254 255 240 215 210 212 212 210 262 293 301 270 306 318 310 327 340 349 355 1 10 10 12 6 347 322 302 290 289 300 301 287
219 217 219 227 233 231 225 227 242 247 251 222 240 225 246 244 238 255 254 243 219 207 213 208 235 263 283 269 253 274 300 303 317 326 339 347 353 2 11 12 8 2 359 328 311 306 292 277 274
216 218 226 234 240 235 221 201 260 253 251 243 232 253 245 246 238 251 260 248 223 215 219 221 244 252 264 259 253 260 273 287 305 320 331 338 340 349 3 9 7 1 0 3 357 353 324 292 282
217 216 226 231 235 239 195 235 283 247 247 226 213 248 252 231 235 242 256 253 233 223 219 231 240 249 254 254 255 260 267 275 285 297 319 331 336 344 349 354 359 0 352 349 340 327 313 301 290
211 217 227 227 231 236 214 243 265 226 228 236 222 240 243 241 240 237 246 252 242 232 231 236 239 243 249 253 256 261 267 270 274 280 294 310 322 332 340 348 353 351 347 341 329 314 309 303 297
207 218 225 228 231 240 239 241 262 245 233 223 220 227 235 234 237 238 243 251 252 239 238 237 240 246 248 252 256 261 265 267 269 273 278 286 293 300 315 329 337 341 340 335 325 313 302 294 291
215 224 227 232 225 235 245 234 251 224 233 226 226 233 234 243 243 242 240 241 252 253 241 240 242 244 246 251 254 259 262 264 266 271 273 276 276 278 284 300 312 319 328 329 322 309 305 299 292
219 229 233 238 212 233 241 235 232 231 224 215 225 218 230 234 243 244 240 237 241 249 255 249 245 249 249 251 254 255 257 259 262 265 268 274 273 269 276 285 294 306 315 314 317 310 307 302 301
222 227 223 220 212 234 238 240 235 232 235 232 226 216 219 223 236 241 239 241 247 249 250 253 253 253 257 257 256 255 256 258 259 261 262 265 271 271 273 281 288 296 301 306 307 301 297 297 293
225 232 231 224 225 234 236 244 243 239 235 240 233 219 217 217 221 230 239 240 234 245 249 251 253 258 258 257 260 260 258 257 257 255 256 265 264 269 271 279 284 290 298 301 302 301 298 293 293
216 229 236 237 237 239 237 249 251 259 250 245 245 245 224 223 227 229 230 239 242 234 243 253 256 252 258 258 259 262 260 260 260 252 258 261 265 265 271 277 282 292 300 303 297 293 288 287 286
218 236 251 254 262 257 252 257 257 260 255 246 241 242 237 228 231 237 239 238 242 244 235 245 253 254 251 258 258 260 257 258 259 257 259 260 260 264 272 278 284 291 297 296 292 288 282 279 278
232 247 256 270 240 252 241 266 276 272 246 249 248 245 242 237 233 236 241 241 240 245 245 238 247 253 254 250 255 259 258 257 264 263 261 262 267 272 277 277 281 286 291 290 285 282 277 274 271
233 246 261 261 292 254 262 273 281 253 237 252 255 256 253 246 243 243 241 242 242 237 240 240 238 248 256 255 245 250 252 254 255 262 260 262 268 272 274 273 276 282 287 287 280 277 272 268 267
215 252 274 236 205 250 258 265 262 266 254 251 258 260 262 263 260 250 247 245 243 239 230 231 232 242 245 251 255 248 252 254 256 261 265 266 269 271 273 271 276 281 286 283 282 279 274 267 264
244 261 261 241 238 268 257 259 266 272 271 268 260 256 256 256 251 247 245 244 243 242 238 229 228 235 241 245 254 255 249 252 253 257 261 266 273 274 273 268 269 274 283 283 287 280 278 272 266
233 248 254 265 259 261 275 282 284 270 265 260 264 268 262 261 261 254 247 244 243 240 236 234 230 229 239 249 253 256 254 247 246 250 257 263 273 272 273 266 266 272 278 277 283 277 280 278 269
241 247 252 264 281 282 301 292 277 273 274 280 284 276 274 269 265 261 256 246 243 241 239 231 230 228 231 232 239 248 254 252 251 253 259 263 265 273 276 263 263 267 277 271 276 278 279 274 265
223 231 244 259 270 283 273 253 292 297 297 288 270 274 280 283 280 279 280 268 260 251 244 244 234 229 228 234 236 241 249 250 249 251 253 258 263 270 273 264 261 260 269 269 271 277 275 274 265
222 244 260 280 288 281 277 223 278 291 67 331 270 297 279 287 274 277 277 273 269 259 252 244 240 236 227 232 239 240 243 251 250 249 250 256 262 270 273 267 259 257 263 263 266 266 273 269 262
211 216 61 249 226 235 11 219 243 218 299 293 276 284 292 269 277 259 258 264 263 262 263 250 241 243 244 232 234 241 244 249 253 251 249 252 259 268 273 265 260 258 260 260 267 265 271 268 265
206 222 177 221 228 285 261 229 270 313 310 293 294 299 283 277 285 264 262 264 267 274 268 260 255 239 239 242 239 235 238 242 247 250 246 250 256 264 268 259 258 255 257 257 255 266 271 267 266
183 211 202 284 277 275 242 269 281 289 284 283 269 268 272 275 266 267 265 270 269 271 274 272 263 252 241 236 241 238 240 242 245 250 248 248 252 260 261 257 252 247 251 257 253 265 266 265 267
190 189 189 203 298 278 280 267 262 286 270 276 269 266 263 269 281 278 278 272 273 270 272 271 270 254 246 232 235 239 239 241 246 245 239 241 248 252 253 253 250 244 250 244 262 264 266 263 270
205 210 198 220 234 216 290 256 302 239 290 295 292 296 291 287 289 272 259 259 263 268 268 272 272 255 243 236 233 237 241 241 244 233 235 241 245 247 249 246 246 248 238 252 259 265 261 266 274
230 226 203 209 215 237 279 273 274 282 279 303 298 297 295 294 265 259 259 259 258 265 281 266 267 251 239 238 236 235 236 237 230 229 234 239 240 242 245 234 233 235 247 250 254 258 261 272 282
Height
3146 3148 3150 3152 3156 3152 3151 3150 3152 3152 3154 3153 3153 3155 3156 3155 3157 3161 3161 3162 3162 3164 3166 3168 3169 3170 3171 3171 3171 3171 3170 3169 3168 3168 3167 3165 3165 3165 3164 3163 3163 3162 3162 3163 3164 3164 3164 3164 3165
3143 3145 3146 3148 3150 3149 3148 3148 3149 3152 3151 3152 3153 3155 3156 3155 3156 3157 3161 3161 3161 3163 3165 3167 3168 3169 3170 3170 3170 3170 3169 3168 3168 3168 3167 3166 3165 3164 3164 3163 3163 3163 3163 3163 3163 3164 3164 3164 3164
3140 3141 3144 3144 3144 3144 3144 3147 3148 3148 3149 3150 3153 3153 3154 3153 3154 3155 3158 3161 3160 3162 3164 3166 3167 3168 3169 3169 3170 3169 3169 3168 3167 3167 3166 3166 3165 3164 3163 3163 3162 3163 3163 3163 3163 3163 3164 3164 3164
3135 3137 3140 3138 3137 3139 3141 3145 3148 3148 3148 3149 3150 3152 3151 3151 3154 3154 3155 3159 3160 3161 3163 3164 3166 3167 3168 3168 3168 3168 3168 3168 3167 3166 3165 3165 3164 3163 3163 3162 3162 3162 3162 3162 3163 3163 3164 3163 3163
3129 3132 3133 3132 3132 3136 3138 3141 3144 3147 3146 3147 3150 3150 3149 3151 3153 3153 3152 3157 3160 3159 3161 3163 3164 3166 3167 3167 3167 3167 3167 3166 3166 3165 3165 3164 3164 3163 3162 3162 3161 3161 3162 3162 3162 3162 3162 3162 3162
3125 3128 3127 3126 3127 3132 3136 3140 3143 3144 3145 3146 3148 3148 3149 3149 3151 3151 3151 3154 3157 3159 3159 3161 3162 3164 3165 3165 3166 3166 3165 3165 3165 3164 3164 3164 3164 3163 3162 3162 3162 3161 3161 3161 3161 3160 3161 3161 3161
3119 3122 3121 3123 3126 3129 3132 3137 3139 3140 3141 3144 3146 3146 3145 3147 3149 3150 3148 3151 3154 3156 3157 3159 3160 3161 3162 3163 3164 3164 3164 3164 3164 3164 3163 3163 3163 3162 3162 3162 3162 3162 3161 3160 3160 3160 3160 3159 3159
3115 3116 3116 3119 3122 3124 3130 3132 3135 3134 3137 3141 3143 3143 3141 3144 3146 3147 3146 3148 3151 3153 3154 3156 3157 3158 3160 3161 3161 3162 3162 3163 3163 3163 3163 3163 3162 3162 3161 3161 3161 3160 3160 3160 3160 3159 3159 3159 3159
3111 3109 3109 3114 3118 3121 3127 3127 3130 3132 3134 3135 3139 3138 3140 3142 3143 3144 3145 3142 3148 3150 3151 3153 3154 3155 3156 3157 3158 3159 3160 3161 3161 3161 3161 3161 3161 3161 3161 3161 3160 3160 3160 3159 3159 3158 3158 3158 3158
3102 3101 3104 3110 3115 3120 3123 3123 3125 3127 3129 3131 3135 3135 3136 3139 3139 3141 3142 3141 3142 3146 3148 3149 3151 3152 3153 3155 3156 3157 3157 3158 3159 3159 3159 3160 3160 3160 3160 3160 3159 3159 3159 3159 3158 3157 3157 3156 3155
3096 3096 3103 3107 3114 3116 3116 3118 3119 3120 3121 3127 3131 3132 3133 3134 3136 3137 3138 3139 3139 3140 3143 3145 3147 3148 3150 3151 3153 3153 3154 3155 3156 3157 3157 3158 3158 3158 3158 3158 3158 3158 3158 3157 3157 3156 3155 3155 3154
3092 3095 3100 3105 3109 3108 3108 3110 3113 3113 3116 3118 3123 3127 3125 3127 3130 3132 3133 3135 3136 3137 3137 3140 3143 3143 3146 3148 3149 3150 3150 3151 3152 3153 3153 3154 3156 3156 3156 3156 3155 3155 3155 3155 3154 3153 3153 3152 3151
3088 3092 3095 3099 3102 3101 3102 3101 3105 3107 3110 3115 3116 3118 3118 3120 3122 3125 3127 3129 3130 3131 3133 3133 3136 3138 3141 3143 3144 3145 3146 3146 3148 3148 3149 3149 3151 3152 3152 3153 3152 3152 3152 3151 3151 3151 3150 3149 3148
3087 3089 3090 3093 3094 3094 3095 3094 3098 3100 3107 3108 3111 3113 3113 3113 3115 3118 3121 3123 3124 3125 3127 3129 3129 3131 3134 3137 3138 3139 3141 3141 3144 3145 3145 3145 3147 3147 3149 3149 3149 3149 3149 3148 3147 3146 3146 3145 3144
3082 3086 3087 3088 3090 3090 3093 3087 3086 3097 3100 3100 3101 3103 3107 3107 3108 3109 3114 3117 3119 3121 3121 3121 3124 3127 3125 3129 3133 3134 3135 3137 3139 3140 3141 3142 3143 3144 3145 3145 3144 3144 3145 3144 3144 3143 3142 3141 3140
3081 3083 3083 3086 3087 3087 3090 3074 3083 3090 3088 3089 3092 3092 3095 3099 3101 3104 3107 3110 3112 3115 3117 3117 3117 3120 3123 3122 3127 3129 3129 3132 3133 3135 3136 3137 3139 3140 3141 3140 3140 3140 3141 3140 3140 3139 3138 3137 3136
3077 3079 3080 3080 3081 3082 3079 3073 3079 3080 3081 3081 3082 3083 3086 3089 3092 3096 3098 3100 3105 3107 3111 3111 3111 3112 3116 3120 3119 3122 3122 3125 3126 3128 3130 3132 3134 3136 3136 3136 3136 3136 3136 3136 3135 3135 3134 3133 3132
3073 3076 3076 3078 3079 3077 3073 3069 3072 3075 3074 3075 3074 3075 3077 3080 3083 3088 3090 3092 3095 3099 3102 3105 3105 3106 3108 3112 3116 3116 3117 3118 3121 3122 3125 3128 3129 3130 3130 3131 3131 3132 3131 3131 3130 3130 3129 3128 3128
3072 3073 3072 3074 3074 3071 3068 3064 3064 3066 3065 3066 3067 3068 3070 3072 3077 3079 3081 3083 3084 3088 3093 3096 3098 3099 3101 3102 3105 3110 3111 3112 3114 3114 3117 3123 3124 3125 3124 3125 3126 3126 3126 3126 3126 3125 3124 3123 3123
3069 3069 3068 3069 3068 3066 3062 3054 3057 3059 3056 3058 3060 3059 3060 3063 3066 3069 3071 3073 3075 3078 3082 3087 3091 3093 3094 3095 3097 3100 3105 3106 3109 3108 3110 3115 3119 3119 3118 3119 3120 3121 3120 3121 3121 3120 3119 3119 3119
3066 3066 3066 3067 3064 3063 3058 3048 3050 3049 3049 3051 3052 3053 3053 3054 3057 3060 3062 3064 3066 3068 3072 3077 3081 3085 3087 3089 3090 3089 3093 3098 3101 3102 3105 3109 3112 3113 3113 3113 3114 3115 3115 3115 3115 3115 3115 3114 3114
3063 3064 3064 3064 3064 3063 3061 3051 3041 3046 3046 3046 3047 3047 3048 3049 3049 3050 3052 3054 3055 3058 3061 3065 3071 3075 3078 3080 3082 3081 3083 3088 3093 3096 3100 3102 3105 3106 3107 3108 3109 3109 3109 3109 3110 3109 3109 3108 3108
3061 3061 3062 3063 3062 3060 3057 3059 3036 3039 3039 3039 3039 3039 3041 3043 3044 3044 3045 3045 3047 3049 3052 3055 3059 3063 3067 3069 3070 3073 3075 3079 3085 3089 3093 3095 3099 3100 3102 3102 3103 3103 3103 3103 3104 3104 3104 3104 3103
3059 3059 3061 3061 3061 3059 3048 3052 3036 3036 3036 3037 3037 3037 3038 3039 3038 3038 3039 3039 3039 3040 3042 3044 3046 3050 3054 3059 3059 3062 3066 3070 3076 3081 3085 3088 3091 3093 3095 3095 3096 3096 3097 3098 3098 3098 3098 3097 3097
3057 3058 3060 3062 3062 3056 3048 3048 3031 3034 3035 3036 3035 3035 3035 3035 3035 3034 3034 3033 3033 3033 3034 3035 3037 3040 3044 3047 3048 3052 3058 3062 3066 3073 3077 3081 3084 3086 3087 3089 3089 3090 3091 3092 3092 3091 3091 3090 3090
3055 3058 3058 3059 3058 3052 3047 3037 3026 3029 3031 3031 3031 3030 3030 3030 3030 3029 3029 3027 3025 3025 3026 3029 3029 3029 3033 3036 3039 3044 3049 3054 3059 3065 3069 3072 3076 3079 3081 3082 3083 3083 3084 3085 3085 3085 3085 3084 3083
3054 3054 3057 3057 3055 3054 3039 3029 3027 3025 3024 3025 3025 3024 3024 3024 3024 3022 3020 3018 3018 3017 3017 3018 3019 3021 3021 3025 3030 3034 3039 3045 3052 3057 3060 3065 3068 3072 3073 3074 3075 3076 3078 3078 3078 3079 3077 3077 3076
3051 3052 3055 3056 3060 3052 3034 3028 3023 3022 3023 3023 3022 3021 3019 3018 3017 3015 3014 3011 3009 3009 3010 3010 3010 3012 3013 3015 3020 3025 3031 3039 3045 3049 3052 3057 3060 3063 3065 3067 3067 3069 3071 3071 3072 3072 3071 3070 3069
3048 3049 3052 3053 3052 3050 3040 3026 3021 3020 3019 3017 3015 3013 3012 3011 3011 3005 3003 3002 3002 3001 3003 3003 3004 3004 3005 3007 3012 3019 3025 3033 3037 3041 3045 3049 3052 3056 3058 3059 3061 3062 3061 3065 3064 3064 3063 3062 3061
3044 3046 3048 3049 3046 3043 3038 3019 3016 3017 3015 3012 3008 3001 2994 2996 2997 2995 2994 2994 2993 2995 2995 2995 2996 2996 2997 3002 3007 3011 3017 3025 3030 3034 3039 3042 3046 3049 3051 3053 3055 3056 3057 3057 3056 3057 3057 3055 3053